DW7816 Weather Reports


time (UTC)temp
C
wind
direction
speed
KPH
gust
KPH
rain 1hr
cm
rain 24hr
cm
rain mn
cm
humidity
%
barometer
mb
20260505190111 11 114 3.2 16.1 0.00 0.23 0.25 87 1007.6
20260505185133 12 94 3.2 20.9 0.00 0.23 0.25 89 1007.7
20260505184111 12 102 4.8 20.9 0.00 0.23 0.25 87 1007.8
20260505182036 12 108 6.4 19.3 0.00 0.23 0.25 86 1007.3
20260505181032 13 123 4.8 19.3 0.00 0.23 0.25 87 1007.1
20260505180040 13 136 4.8 16.1 0.00 0.23 0.25 86 1007.1
20260505175029 13 148 3.2 14.5 0.00 0.23 0.25 86 1007.2
20260505174037 13 80 1.6 19.3 0.00 0.23 0.25 87 1007.2
20260505173029 13 157 4.8 19.3 0.00 0.23 0.25 87 1007.3
20260505170912 13 95 4.8 14.5 0.00 0.23 0.25 87 1007.2
20260505165902 13 322 3.2 16.1 0.00 0.23 0.25 87 1007.2
20260505163750 13 128 3.2 12.9 0.00 0.23 0.25 85 1007.1
20260505161641 13 51 4.8 19.3 0.00 0.23 0.25 88 1007.4
20260505160616 14 48 4.8 19.3 0.00 0.23 0.25 88 1007.6
20260505152647 15 130 9.7 17.7 0.00 0.23 0.25 88 1006.1
20260505151637 15 188 6.4 17.7 0.00 0.23 0.25 88 1006.0
20260505150608 15 113 8.0 14.5 0.00 0.23 0.25 86 1006.2
20260505140403 15 159 4.8 11.3 0.00 0.23 0.25 88 1006.2
20260505130300 13 126 4.8 16.1 0.00 0.23 0.25 89 1005.8
20260505124322 13 162 4.8 17.7 0.00 0.23 0.25 90 1005.7
20260505122208 14 173 6.4 16.1 0.00 0.23 0.25 91 1005.3
20260505121223 14 161 4.8 12.9 0.00 0.23 0.25 92 1005.6
20260505120240 14 108 1.6 12.9 0.00 0.23 0.25 92 1005.2
20260505115226 15 118 0.0 14.5 0.00 0.23 0.25 92 1005.4
20260505114203 15 175 1.6 9.7 0.00 0.23 0.25 93 1005.2
20260505113131 15 71 3.2 14.5 0.00 0.23 0.25 94 1004.5
20260505112142 15 220 1.6 1.6 0.00 0.23 0.25 95 1004.6
20260505111155 15 355 1.6 12.9 0.00 0.23 0.25 95 1005.8
20260505110139 15 67 3.2 12.9 0.00 0.23 0.25 94 1004.9
20260505102005 14 38 0.0 4.8 0.00 0.23 0.25 96 1004.4
20260505100958 15 203 0.0 0.0 0.00 0.23 0.25 95 1004.2
20260505100006 15 203 0.0 0.0 0.00 0.23 0.25 95 1004.0
20260505095005 15 203 0.0 0.0 0.00 0.23 0.25 94 1003.5
20260505094020 15 203 0.0 8.0 0.10 0.23 0.25 93 1003.5
20260505093002 15 290 4.8 16.1 0.10 0.23 0.25 94 1003.1
20260505092000 15 240 6.4 16.1 0.13 0.23 0.23 95 1002.7
20260505090947 15 211 1.6 6.4 0.15 0.20 0.20 94 1004.3
20260505084904 16 264 0.0 6.4 0.58 0.10 0.13 92 1005.3
20260505083845 16 22 0.0 0.0 0.20 0.05 0.05 91 1005.4
20260505082836 16 340 0.0 3.2 0.00 0.00 0.03 89 1005.3
20260505080638 17 204 3.2 16.1 0.00 0.00 0.00 83 1004.6
20260505075632 17 264 1.6 16.1 0.00 0.00 0.00 81 1004.7
20260505074602 17 236 0.0 6.4 0.00 0.00 0.00 81 1004.5
20260505073529 17 263 0.0 0.0 0.00 0.00 0.00 81 1004.5
20260505072544 17 202 0.0 4.8 0.00 0.00 0.00 80 1004.3
20260505071544 17 171 0.0 8.0 0.00 0.00 0.00 81 1004.4
20260505065400 17 206 0.0 8.0 0.00 0.00 0.00 81 1004.3
20260505064412 17 265 0.0 8.0 0.00 0.00 0.00 80 1004.7
20260505063429 17 245 1.6 8.0 0.00 0.00 0.00 80 1005.0
20260505061309 17 162 0.0 3.2 0.00 0.00 0.00 80 1005.2
20260505060300 17 266 1.6 9.7 0.00 0.00 0.00 80 1005.1
20260505055226 17 221 1.6 8.0 0.00 0.00 0.00 80 1005.0
20260505053048 17 238 0.0 8.0 0.00 0.00 0.00 80 1005.1
20260505052038 17 236 1.6 9.7 0.00 0.00 0.00 80 1005.1
20260505051005 17 227 1.6 9.7 0.00 0.00 0.00 81 1005.2
20260505041017 16 247 0.0 1.6 0.00 0.00 0.00 81 1005.9
20260505040031 17 261 0.0 1.6 0.00 0.00 0.00 81 1006.1
20260505035005 17 229 0.0 0.0 0.00 0.00 0.00 79 1006.2
20260505034007 17 232 0.0 0.0 0.00 0.00 0.00 79 1006.3
20260505031835 17 240 0.0 8.0 0.00 0.00 0.00 77 1006.3
20260505025656 17 238 0.0 3.2 0.00 0.00 0.00 78 1006.2
20260505024622 17 202 0.0 0.0 0.00 0.00 0.00 77 1006.1
20260505023619 17 195 0.0 1.6 0.00 0.00 0.00 77 1005.9
20260505022608 17 206 0.0 0.0 0.00 0.00 0.00 77 1005.6
20260505021538 18 206 0.0 0.0 0.00 0.00 0.00 75 1005.6
20260505020544 18 224 0.0 0.0 0.00 0.00 0.00 75 1005.4
20260505015603 19 254 0.0 1.6 0.00 0.00 0.00 74 1005.3
20260505014544 20 254 0.0 1.6 0.00 0.00 0.00 72 1005.1
20260505013542 20 254 0.0 1.6 0.00 0.00 0.00 70 1005.0
20260505012521 20 243 0.0 8.0 0.00 0.00 0.00 67 1004.9
20260505011534 21 249 0.0 8.0 0.00 0.00 0.00 68 1004.7
20260505010522 21 255 0.0 4.8 0.00 0.00 0.00 66 1004.6
20260505005500 21 240 0.0 0.0 0.00 0.00 0.00 65 1004.6
20260505004449 22 243 0.0 11.3 0.00 0.00 0.00 62 1004.3
20260505003433 22 222 1.6 11.3 0.00 0.00 0.00 61 1004.3
20260505002415 22 297 0.0 8.0 0.00 0.00 0.00 60 1004.2
20260505001440 23 244 1.6 12.9 0.00 0.00 0.00 60 1004.2
20260505000440 23 254 1.6 4.8 0.00 0.00 0.00 57 1004.3
20260504234302 24 275 3.2 16.1 0.00 0.00 0.00 53 1004.1
20260504233256 25 196 3.2 16.1 0.00 0.00 0.00 52 1004.1
20260504232258 25 279 1.6 9.7 0.00 0.00 0.00 53 1004.2
20260504231236 25 320 6.4 25.7 0.00 0.00 0.00 51 1004.2
20260504230233 25 238 6.4 25.7 0.00 0.00 0.00 51 1004.3
20260504225253 25 234 4.8 17.7 0.00 0.00 0.00 52 1004.2
20260504224254 26 216 6.4 19.3 0.00 0.00 0.00 50 1004.3
20260504223221 26 293 3.2 19.3 0.00 0.00 0.00 53 1004.2
20260504222201 26 273 6.4 19.3 0.00 0.00 0.00 52 1004.2
20260504221202 26 171 4.8 17.7 0.00 0.00 0.00 53 1004.3
20260504220130 26 205 4.8 22.5 0.00 0.00 0.00 53 1004.4
20260504214056 26 303 6.4 17.7 0.00 0.00 0.00 54 1004.5
20260504213036 26 246 4.8 27.4 0.00 0.00 0.00 55 1004.7
20260504212047 26 278 6.4 27.4 0.00 0.00 0.00 53 1004.6
20260504211046 26 331 4.8 22.5 0.00 0.00 0.00 55 1004.8
20260504210054 26 276 4.8 22.5 0.00 0.00 0.00 56 1004.9
20260504205114 26 250 6.4 20.9 0.00 0.00 0.00 54 1005.0
20260504202921 26 296 8.0 22.5 0.00 0.00 0.00 53 1005.4
20260504201848 26 274 4.8 16.1 0.00 0.00 0.00 56 1005.5
20260504200852 26 316 6.4 22.5 0.00 0.00 0.00 52 1005.6
20260504194729 26 260 8.0 22.5 0.00 0.00 0.00 58 1005.9
20260504193752 26 238 6.4 17.7 0.00 0.00 0.00 54 1005.9
20260504192732 26 23 4.8 19.3 0.00 0.00 0.00 56 1005.9